EFHKFMI Weather Reports


time (UTC)temp
F
wind
direction
speed
knots
gust
knots
rain 1hr
in
rain 24hr
in
rain mn
in
humidity
%
barometer
mb
20260506084719 50 268 7.8 13.0 0.00 0.00 0.00 33 1012.9
20260506082720 48 291 9.6 13.0 0.00 0.00 0.00 36 1012.9
20260506080719 47 320 9.6 16.5 0.00 0.00 0.00 34 1012.8
20260506072719 47 273 9.6 13.9 0.00 0.00 0.00 40 1012.5
20260506070719 47 296 9.6 13.9 0.00 0.00 0.00 44 1012.5
20260506060719 44 281 7.0 9.6 0.00 0.00 0.00 56 1012.1
20260506050719 41 288 9.6 12.2 0.00 0.00 0.00 64 1011.6
20260506044719 39 284 7.8 11.3 0.00 0.00 0.00 67 1011.3
20260506042719 38 285 7.8 10.4 0.00 0.00 0.00 71 1011.2
20260506040718 37 266 6.1 8.7 0.00 0.00 0.00 74 1011.1
20260506034718 35 251 5.2 7.0 0.00 0.00 0.00 77 1010.9
20260506032718 34 247 4.3 6.1 0.00 0.00 0.00 80 1010.7
20260506030719 31 253 5.2 7.0 0.00 0.00 0.00 84 1010.6
20260506024718 29 246 5.2 6.1 0.00 0.00 0.00 85 1010.4
20260506022718 30 258 5.2 5.2 0.00 0.00 0.00 84 1010.2
20260506020718 30 269 5.2 6.1 0.00 0.00 0.00 84 1010.0
20260506014718 30 275 5.2 6.1 0.00 0.00 0.00 85 1009.9
20260506012718 29 275 4.3 6.1 0.00 0.00 0.00 86 1009.9
20260506010718 31 269 5.2 6.1 0.00 0.00 0.00 82 1009.7
20260506004718 32 258 5.2 6.1 0.00 0.00 0.00 78 1009.5
20260506002718 34 263 6.1 7.0 0.00 0.00 0.00 74 1009.3
20260506000717 35 263 7.0 8.7 0.00 0.00 0.00 73 1009.2
20260505234718 35 268 6.1 8.7 0.00 0.00 0.00 71 1009.0
20260505232718 35 274 7.8 10.4 0.00 0.00 0.00 69 1008.8
20260505230718 35 280 7.0 9.6 0.00 0.00 0.00 70 1008.7
20260505224717 36 276 6.1 7.8 0.00 0.00 0.00 68 1008.6
20260505222717 37 274 7.0 8.7 0.00 0.00 0.00 66 1008.5
20260505220717 38 275 6.1 9.6 0.00 0.00 0.00 63 1008.4
20260505214718 38 270 6.1 7.8 0.00 0.00 0.00 62 1008.3
20260505212718 38 271 6.1 7.8 0.00 0.00 0.00 60 1008.1
20260505210717 39 276 6.1 7.8 0.00 0.00 0.00 59 1007.9
20260505204717 39 274 5.2 7.0 0.00 0.00 0.00 58 1007.6
20260505202717 40 283 5.2 7.8 0.00 0.00 0.00 57 1007.5
20260505200717 40 277 7.0 9.6 0.00 0.00 0.00 55 1007.3
20260505194717 42 276 9.6 11.3 0.00 0.00 0.00 51 1007.1
20260505192717 42 275 11.3 13.9 0.00 0.00 0.00 49 1006.9
20260505190717 44 267 9.6 14.8 0.00 0.00 0.00 46 1006.7
20260505184717 44 262 8.7 13.0 0.00 0.00 0.00 44 1006.5
20260505182717 45 266 9.6 12.2 0.00 0.00 0.00 42 1006.2
20260505180716 46 260 10.4 13.9 0.00 0.00 0.00 41 1006.0
20260505174716 47 265 10.4 14.8 0.00 0.00 0.00 39 1005.8
20260505172716 47 274 13.0 18.2 0.00 0.00 0.00 38 1005.6
20260505170716 48 259 12.2 16.5 0.00 0.00 0.00 39 1005.5
20260505164716 49 275 14.8 18.2 0.00 0.00 0.00 35 1005.4
20260505162716 50 279 13.9 19.1 0.00 0.00 0.00 34 1005.3
20260505160716 51 260 13.0 18.2 0.00 0.00 0.00 31 1005.2
20260505152716 52 270 13.0 16.5 0.00 0.00 0.00 30 1004.9
20260505150716 52 281 13.0 17.4 0.00 0.00 0.00 29 1004.7
20260505124715 53 278 13.9 19.1 0.00 0.00 0.00 38 1004.5
20260505122715 52 279 13.0 20.0 0.00 0.00 0.00 40 1004.1
20260505120715 49 309 13.9 20.9 0.00 0.00 0.00 45 1004.1
20260505114715 53 277 13.0 19.1 0.00 0.06 0.00 40 1003.7
20260505112715 50 293 15.6 20.9 0.00 0.06 0.00 44 1003.6
20260505110715 54 270 15.6 22.6 0.00 0.06 0.00 38 1003.2
20260505100715 53 293 16.5 22.6 0.00 0.09 0.00 44 1002.3
20260505094715 54 287 16.5 24.3 0.00 0.12 0.00 40 1002.1
20260505092715 54 281 14.8 23.5 0.00 0.12 0.00 47 1001.7
20260505090715 53 294 14.8 24.3 0.00 0.12 0.00 51 1001.4